Regional Weather Roundup
Issued by NWS Raleigh/Durham, NC

Home | Current Version | Previous Version | Text Only | Print | Product List | Glossary On
Versions: 1 2 3 4 5 6 7 8 9 10 11 12 13 14 15 16 17 18 19 20 21 22 23 24 25 26 27
000
ASUS42 KRAH 252210
RWRRAH
NORTH CAROLINA WEATHER ROUNDUP
NATIONAL WEATHER SERVICE RALEIGH NC
600 PM EDT TUE JUL 25 2017

NOTE: "FAIR" INDICATES FEW OR NO CLOUDS BELOW 12,000 FEET WITH NO
SIGNIFICANT WEATHER AND/OR OBSTRUCTIONS TO VISIBILITY.

NCZ001-053-055-056-065-067-252300-
WESTERN NORTH CAROLINA

CITY           SKY/WX    TMP DP  RH WIND       PRES   REMARKS
ASHEVILLE      MOSUNNY   84  70  62 SE10      30.13F
JEFFERSON      SUNNY     79  58  48 NW3       30.21S
MORGANTON      MOSUNNY   91  64  41 W3        30.12S
HICKORY        MOSUNNY   88  68  51 VRB5      30.07S
RUTHERFORDTON  MOSUNNY   89  69  52 W3        30.08S
MOUNT AIRY     SUNNY     90  57  32 CALM      30.10F
BOONE          MOSUNNY   82  58  44 NW3       30.21F
$$

NCZ021-022-025-041-071-084-088-252300-
CENTRAL NORTH CAROLINA

CITY           SKY/WX    TMP DP  RH WIND       PRES   REMARKS
CHARLOTTE      PTSUNNY   93  64  38 VRB3      30.05F
GREENSBORO     MOSUNNY   90  64  42 N6        30.06F
WINSTON-SALEM  SUNNY     91  59  33 N7        30.08F
RALEIGH-DURHAM PTSUNNY   91  63  39 N6        30.06F
FORT BRAGG     MOSUNNY   91  68  47 NE6       30.02F HX  95
FAYETTEVILLE   MOSUNNY  N/A N/A N/A N8        30.02S
BURLINGTON     MOSUNNY   90  60  36 VRB5      30.06F
LAURINBURG       N/A    N/A N/A N/A MISG      30.02F
$$

NCZ011-015-027-028-043-044-047-080-103-252300-
NORTHEASTERN NORTH CAROLINA

CITY           SKY/WX    TMP DP  RH WIND       PRES   REMARKS
ROCKY MT-WILSO MOSUNNY   88  74  63 E3        30.04F HX  96
GREENVILLE     MOSUNNY   88  75  66 E7        30.06S HX  97
WASHINGTON     MOSUNNY   85  73  65 E9        30.05S
ELIZABETH CITY MOSUNNY   82  68  62 NE12      30.08R
MANTEO         CLOUDY    79  65  60 NE12      30.09S
CAPE HATTERAS  CLOUDY    79  69  71 NE10G18   30.08S
$$

NCZ078-087-090-091-093-098-101-252300-
SOUTHEASTERN NORTH CAROLINA

CITY           SKY/WX    TMP DP  RH WIND       PRES   REMARKS
LUMBERTON      CLOUDY    93  71  48 VRB3      30.01F HX 100
GOLDSBORO      PTSUNNY   92  70  48 N8        30.01F HX  97
KINSTON        MOSUNNY   90  72  55 E7        30.03F HX  96
KENANSVILLE    MOSUNNY   91  70  49 N7        30.02F HX  97
NEW BERN       PTSUNNY   83  75  77 E8        30.05R
CHERRY POINT   CLOUDY    84  75  74 E8        30.05F
BEAUFORT       MOSUNNY   85  78  80 W8        30.03F HX  96
JACKSONVILLE   MOSUNNY   88  77  69 S7        30.01F HX 100
WILMINGTON     CLOUDY    84  76  76 NW6       30.03R THUNDER
$$





USA.gov is the U.S. government's official web portal to all federal, state and local government web resources and services.